Provincetown, MA

11:38 AM EDT on September 22, 2017 (GMT -0400)
Provincetown Municipal

Weather History for KPVC - February, 2013

Change the Weather History Date:

Thursday, February 7, 2013

  Actual Average Record
Temperature  
Mean Temperature 27 °F -  
Max Temperature 30 °F 35 °F 49 °F (1953)
Min Temperature 24 °F 25 °F 17 °F (2007)
Degree Days  
Heating Degree Days 38    
Moisture  
Dew Point 12 °F    
Average Humidity 57    
Maximum Humidity 80    
Minimum Humidity 43    
Precipitation  
Precipitation 0.00 in - - ()
Sea Level Pressure  
Sea Level Pressure 30.46 in    
Wind  
Wind Speed 13 mph (North)    
Max Wind Speed 18 mph    
Max Gust Speed 24 mph    
Visibility 10 miles    
Events      
Averages and records for this station are not official NWS values.
T = Trace of Precipitation, MM = Missing Value Source: NWS Daily Summary

Daily Weather History Graph

Daily Weather History Graph

Search for Another Location

Airport or City:

Trip Planner

Search our weather history database for the weather conditions in past years. The results will help you decide how hot, cold, wet, or windy it might be!

Date:

Astronomy

Feb. 07, 2013 Rise Set
Actual Time 6:46 AM EST 5:03 PM EST
Civil Twilight 6:17 AM EST 5:32 PM EST
Nautical Twilight 5:44 AM EST 6:06 PM EST
Astronomical Twilight 5:12 AM EST 6:38 PM EST
Moon 4:25 AM EST (2/7) 2:23 PM EST (2/7)
Length of Visible Light 11h 15m
Length of Day
10h 16m
Waning Crescent, 9% of the Moon is Illuminated
Feb 7
Waning Crescent
Feb 10
New
Feb 17
First Quarter
Feb 25
Full
Mar 4
Last Quarter

Hourly Weather History & Observations

Time (EST) Temp. Windchill Dew Point Humidity Pressure Visibility Wind Dir Wind Speed Gust Speed Precip Events Conditions
12:15 AM 30.2 °F 19.3 °F 10.4 °F 44% 30.28 in 10.0 mi NW 15.0 mph 23.0 mph N/A   Clear
12:35 AM 30.2 °F 18.9 °F 10.4 °F 44% 30.29 in 10.0 mi NW 16.1 mph 20.7 mph N/A   Clear
12:55 AM 30.2 °F 19.8 °F 15.8 °F 55% 30.30 in 10.0 mi NNW 13.8 mph - N/A   Partly Cloudy
1:15 AM 30.2 °F 19.8 °F 15.8 °F 55% 30.31 in 10.0 mi NW 13.8 mph 17.3 mph N/A   Clear
1:35 AM 28.4 °F 17.5 °F 15.8 °F 59% 30.31 in 10.0 mi NNW 13.8 mph - N/A   Clear
1:55 AM 28.4 °F 17.0 °F 15.8 °F 59% 30.32 in 10.0 mi NNW 15.0 mph 20.7 mph N/A   Clear
2:15 AM 28.4 °F 18.0 °F 14.0 °F 55% 30.34 in 10.0 mi NNW 12.7 mph 20.7 mph N/A   Clear
2:35 AM 26.6 °F 14.7 °F 12.2 °F 55% 30.33 in 10.0 mi NNW 15.0 mph 18.4 mph N/A   Clear
2:55 AM 26.6 °F 14.3 °F 10.4 °F 51% 30.34 in 10.0 mi NNW 16.1 mph 20.7 mph N/A   Clear
3:15 AM 26.6 °F 13.8 °F 10.4 °F 51% 30.35 in 10.0 mi NNW 17.3 mph 23.0 mph N/A   Clear
3:35 AM 26.6 °F 14.7 °F 8.6 °F 47% 30.36 in 10.0 mi NNW 15.0 mph 21.9 mph N/A   Clear
3:55 AM 24.8 °F 13.4 °F 6.8 °F 46% 30.37 in 10.0 mi NNW 12.7 mph 20.7 mph N/A   Clear
4:15 AM 24.8 °F 11.9 °F 8.6 °F 50% 30.38 in 10.0 mi NNW 16.1 mph 20.7 mph N/A   Clear
4:35 AM 24.8 °F 11.5 °F 10.4 °F 54% 30.38 in 10.0 mi NNW 17.3 mph 24.2 mph N/A   Clear
4:55 AM 24.8 °F 12.4 °F 10.4 °F 54% 30.39 in 10.0 mi NNW 15.0 mph 24.2 mph N/A   Clear
5:15 AM 24.8 °F 11.9 °F 10.4 °F 54% 30.39 in 10.0 mi NNW 16.1 mph 23.0 mph N/A   Clear
5:35 AM 24.8 °F 12.9 °F 10.4 °F 54% 30.40 in 10.0 mi NNW 13.8 mph 23.0 mph N/A   Clear
5:55 AM 24.8 °F 11.1 °F 10.4 °F 54% 30.41 in 10.0 mi NNW 18.4 mph 23.0 mph N/A   Clear
6:15 AM 24.8 °F 12.4 °F 8.6 °F 50% 30.41 in 10.0 mi NNW 15.0 mph 20.7 mph N/A   Clear
6:35 AM 24.8 °F 12.9 °F 6.8 °F 46% 30.42 in 10.0 mi NNW 13.8 mph 21.9 mph N/A   Clear
6:55 AM 24.8 °F 14.0 °F 8.6 °F 50% 30.44 in 10.0 mi NNW 11.5 mph 21.9 mph N/A   Clear
7:15 AM 24.8 °F 12.4 °F 6.8 °F 46% 30.45 in 10.0 mi NNW 15.0 mph 20.7 mph N/A   Clear
7:35 AM 24.8 °F 11.9 °F 6.8 °F 46% 30.45 in 10.0 mi NW 16.1 mph 24.2 mph N/A   Clear
7:55 AM 24.8 °F 11.9 °F 8.6 °F 50% 30.46 in 10.0 mi NNW 16.1 mph 23.0 mph N/A   Clear
8:15 AM 24.8 °F 12.4 °F 6.8 °F 46% 30.48 in 10.0 mi NW 15.0 mph 21.9 mph N/A   Clear
8:35 AM 26.6 °F 13.8 °F 8.6 °F 47% 30.49 in 10.0 mi NW 17.3 mph 24.2 mph N/A   Clear
8:55 AM 26.6 °F 13.8 °F 6.8 °F 43% 30.49 in 10.0 mi NNW 17.3 mph 23.0 mph N/A   Mostly Cloudy
9:15 AM 24.8 °F 11.9 °F 8.6 °F 50% 30.49 in 10.0 mi NW 16.1 mph 23.0 mph N/A   Overcast
9:35 AM 24.8 °F 12.9 °F 8.6 °F 50% 30.50 in 10.0 mi NNW 13.8 mph 23.0 mph N/A   Overcast
9:55 AM 24.8 °F 12.9 °F 8.6 °F 50% 30.51 in 10.0 mi NNW 13.8 mph 19.6 mph N/A   Overcast
10:15 AM - - - N/A% 30.51 in - NW 15.0 mph - N/A   Unknown
10:35 AM 24.8 °F 12.9 °F 8.6 °F 50% 30.52 in 10.0 mi NNW 13.8 mph 21.9 mph N/A   Overcast
10:55 AM 26.6 °F 14.7 °F 8.6 °F 47% 30.53 in 10.0 mi NNW 15.0 mph 19.6 mph N/A   Overcast
11:15 AM 26.6 °F 14.3 °F 8.6 °F 47% 30.52 in 10.0 mi NNW 16.1 mph 21.9 mph N/A   Overcast
11:35 AM 26.6 °F 14.7 °F 10.4 °F 51% 30.52 in 10.0 mi NNW 15.0 mph 19.6 mph N/A   Overcast
11:55 AM 26.6 °F 16.2 °F 10.4 °F 51% 30.52 in 10.0 mi NW 11.5 mph - N/A   Overcast
12:15 PM 26.6 °F 15.7 °F 10.4 °F 51% 30.52 in 10.0 mi NNW 12.7 mph - N/A   Mostly Cloudy
12:35 PM 24.8 °F 15.3 °F 8.6 °F 50% 30.52 in 10.0 mi NNW 9.2 mph - N/A   Partly Cloudy
12:55 PM 26.6 °F 16.2 °F 8.6 °F 47% 30.51 in 10.0 mi North 11.5 mph 18.4 mph N/A   Clear
1:15 PM 24.8 °F 13.4 °F 8.6 °F 50% 30.51 in 10.0 mi NNW 12.7 mph - N/A   Clear
1:35 PM 26.6 °F 16.2 °F 8.6 °F 47% 30.50 in 10.0 mi NNW 11.5 mph 16.1 mph N/A   Clear
1:55 PM 26.6 °F 18.2 °F 10.4 °F 51% 30.50 in 10.0 mi North 8.1 mph - N/A   Clear
2:15 PM 26.6 °F 16.8 °F 10.4 °F 51% 30.50 in 10.0 mi North 10.4 mph - N/A   Clear
2:35 PM 24.8 °F 14.6 °F 8.6 °F 50% 30.50 in 10.0 mi North 10.4 mph - N/A   Clear
2:55 PM 24.8 °F 16.9 °F 10.4 °F 54% 30.50 in 10.0 mi North 6.9 mph - N/A   Clear
3:15 PM 24.8 °F 16.9 °F 10.4 °F 54% 30.50 in 10.0 mi North 6.9 mph - N/A   Clear
3:35 PM 24.8 °F 16.1 °F 10.4 °F 54% 30.50 in 10.0 mi NNE 8.1 mph - N/A   Clear
3:55 PM 24.8 °F 16.1 °F 10.4 °F 54% 30.50 in 10.0 mi North 8.1 mph - N/A   Clear
4:15 PM 24.8 °F 15.3 °F 12.2 °F 59% 30.50 in 10.0 mi NNE 9.2 mph - N/A   Clear
4:35 PM 24.8 °F 17.9 °F 12.2 °F 59% 30.49 in 10.0 mi NNE 5.8 mph - N/A   Clear
4:55 PM 24.8 °F 17.9 °F 12.2 °F 59% 30.49 in 10.0 mi NNE 5.8 mph - N/A   Clear
5:15 PM 24.8 °F 19.1 °F 14.0 °F 64% 30.49 in 10.0 mi NE 4.6 mph - N/A   Scattered Clouds
5:35 PM 24.8 °F 19.1 °F 15.8 °F 69% 30.51 in 10.0 mi NE 4.6 mph - N/A   Scattered Clouds
5:55 PM 24.8 °F 20.5 °F 15.8 °F 69% 30.51 in 10.0 mi NE 3.5 mph - N/A   Mostly Cloudy
6:35 PM 24.8 °F - 15.8 °F 69% 30.52 in 10.0 mi Calm Calm - N/A   Overcast
6:55 PM 24.8 °F - 15.8 °F 69% 30.53 in 10.0 mi Calm Calm - N/A   Overcast
7:15 PM 24.8 °F - 17.6 °F 74% 30.53 in 10.0 mi Calm Calm - N/A   Overcast
7:35 PM 24.8 °F - 17.6 °F 74% 30.53 in 10.0 mi Calm Calm - N/A   Overcast
7:55 PM 24.8 °F - 17.6 °F 74% 30.53 in 10.0 mi Calm Calm - N/A   Overcast
8:15 PM 26.6 °F 21.2 °F 17.6 °F 69% 30.52 in 10.0 mi ENE 4.6 mph - N/A   Mostly Cloudy
8:35 PM 26.6 °F 20.0 °F 17.6 °F 69% 30.52 in 10.0 mi ESE 5.8 mph - N/A   Overcast
8:55 PM 26.6 °F 18.2 °F 21.2 °F 80% 30.52 in 10.0 mi East 8.1 mph - N/A   Overcast
9:15 PM 26.6 °F 18.2 °F 19.4 °F 74% 30.52 in 10.0 mi ENE 8.1 mph - N/A   Overcast
9:35 PM 28.4 °F 19.1 °F 19.4 °F 69% 30.51 in 10.0 mi East 10.4 mph - N/A   Overcast
9:55 PM 28.4 °F 20.4 °F 21.2 °F 74% 30.50 in 10.0 mi East 8.1 mph - N/A   Overcast
10:15 PM 28.4 °F 19.1 °F 19.4 °F 69% 30.50 in 10.0 mi East 10.4 mph - N/A   Overcast
10:35 PM 28.4 °F 19.7 °F 21.2 °F 74% 30.50 in 10.0 mi East 9.2 mph - N/A   Overcast
10:55 PM 28.4 °F 20.4 °F 21.2 °F 74% 30.50 in 10.0 mi ESE 8.1 mph - N/A   Overcast
11:15 PM 28.4 °F 20.4 °F 21.2 °F 74% 30.50 in 10.0 mi East 8.1 mph - N/A   Overcast
11:35 PM 28.4 °F 19.7 °F 19.4 °F 69% 30.51 in 10.0 mi East 9.2 mph - N/A   Overcast
11:55 PM 28.4 °F 20.4 °F 21.2 °F 74% 30.50 in 10.0 mi ESE 8.1 mph - N/A   Overcast